{"data":{"norad_id":43231,"intl_designator":"2018-024A","name":"O3B FM15","alt_names":[],"object_type":"PAYLOAD","status":"ACTIVE","operator":null,"country":"O3B","launch_date":"2018-03-09","launch_site_code":"FRGUI","launch_vehicle":null,"mission":null,"orbit_class":"UNKNOWN","rcs_meters":null,"size_class":null,"mass_kg":null,"dimensions":null,"purposes":["comms"],"wikipedia_slug":null,"has_3d_model":false,"image_url":null,"decayed_at":null,"tle_current":{"epoch":"2026-09-19T05:47:19.344768Z","epoch_age_seconds":123180,"freshness":"FRESH","line1":"1 43231U 18024A   26262.24119612 -.00000027  00000+0  00000+0 0  9990","line2":"2 43231   0.0563 356.1499 0002575 183.8446 180.0076  5.00115925155730","mean_motion":5.00115925,"eccentricity":0.0002575,"inclination_deg":0.0563,"raan_deg":356.1499,"arg_perigee_deg":183.8446,"mean_anomaly_deg":180.0076,"bstar":0,"rev_number":15573,"period_min":287.93324267769,"perigee_km":8062.1627003338,"apogee_km":8069.601370137,"semimajor_km":14444.019035235,"source":"CELESTRAK","updated_at":"2026-09-20T09:00:35.685500Z"}}}